User: anonymous   Login
Location: Unspecified
(0.0000°N, 0.0000°E)
Time: 07:20:18
(UTC+00:00)
Language:

OBJECT H - Orbit

View from above orbital plane
View from above orbital plane
View from above satellite
View from above satellite

Ground track
Ground track

The orbit is defined by the following mean orbital elements,

1 43669U 18083H   24130.99921043  .13914420  25146-5  50688-3 0  9992
2 43669  97.2952 170.3552 0012886 250.8284 109.1623 16.43032312307806
Epoch (UTC): 09 May 2024 23:58:51
Eccentricity: 0.0012886
inclination: 97.2952°
perigee height: 149 km
apogee height: 166 km
right ascension of ascending node: 170.3552°
argument of perigee: 250.8284°
revolutions per day: 16.43032312
mean anomaly at epoch: 109.1623°

The dashed part of the orbit path shows where the satellite is in the earth's shadow,  

DLR